This is the latest recevied weather packets stored in our database for station/object W5ITZ. If no packets are shown the sender has not sent any weather packets the latest 10 day(s).
| Time | Temp. | Humidity | Pressure | Rain* | Wind** | Luminosity | Snow |
|---|---|---|---|---|---|---|---|
| 1777315497 | 28.33° C | 80% | 1010.8 hPa | 0 mm | - | 428 W/m² | - |
| 1777315195 | 27.78° C | 80% | 1010.7 hPa | 0 mm | - | 400 W/m² | - |
| 1777314891 | 27.78° C | 80% | 1010.7 hPa | 0 mm | - | 464 W/m² | - |
| 1777314587 | 27.78° C | 81% | 1010.7 hPa | 0 mm | - | 407 W/m² | - |
| 1777314284 | 27.78° C | 81% | 1010.8 hPa | 0 mm | - | 374 W/m² | - |
| 1777313981 | 27.78° C | 81% | 1011 hPa | 0 mm | - | 365 W/m² | - |
| 1777313678 | 27.78° C | 81% | 1011 hPa | 0 mm | - | 356 W/m² | - |
| 1777313376 | 27.78° C | 81% | 1011.3 hPa | 0 mm | - | 316 W/m² | - |
| 1777313073 | 27.78° C | 81% | 1011 hPa | 0 mm | - | 190 W/m² | - |
| 1777312768 | 27.78° C | 81% | 1011 hPa | 0 mm | - | 266 W/m² | - |
| 1777312465 | 27.78° C | 80% | 1011.1 hPa | 0 mm | - | 256 W/m² | - |
| 1777312163 | 27.78° C | 80% | 1011.1 hPa | 0 mm | - | 181 W/m² | - |
| 1777311860 | 27.78° C | 80% | 1011.1 hPa | 0 mm | - | 311 W/m² | - |
| 1777311557 | 28.33° C | 80% | 1010.9 hPa | 0 mm | - | 284 W/m² | - |
| 1777311255 | 27.78° C | 79% | 1011.1 hPa | 0 mm | - | 291 W/m² | - |
| 1777310952 | 27.78° C | 77% | 1011 hPa | 0 mm | - | 267 W/m² | - |
| 1777310650 | 27.78° C | 78% | 1011 hPa | 0 mm | - | 284 W/m² | - |
| 1777310347 | 27.78° C | 79% | 1011.2 hPa | 0 mm | - | 294 W/m² | - |
| 1777310044 | 27.78° C | 78% | 1011.1 hPa | 0 mm | - | 223 W/m² | - |
| 1777309742 | 27.78° C | 77% | 1011 hPa | 0 mm | - | 256 W/m² | - |
| 1777309439 | 28.33° C | 77% | 1011.1 hPa | 0 mm | - | 254 W/m² | - |
| 1777309136 | 28.33° C | 77% | 1010.9 hPa | 0 mm | - | 279 W/m² | - |
| 1777308834 | 28.33° C | 77% | 1011.1 hPa | 0 mm | - | 391 W/m² | - |
| 1777308529 | 28.33° C | 77% | 1011 hPa | 0 mm | - | 316 W/m² | - |
| 1777308225 | 28.33° C | 78% | 1010.9 hPa | 0 mm | - | 348 W/m² | - |
* Rain latest hour (hover to see other rain measurements)
** Current wind speed in m/s (hover to see current wind gust speed)